(2014 SR260) |
Classification: Amor [NEO] SPK-ID: 3691094 |
[ hide orbit diagram ]
For accurate long-term ephemerides, please instead use our Horizons system.This orbit viewer was implemented using two-body methods, and hence should not be used for determining accurate long-term trajectories (over several years or decades) or planetary encounter circumstances.
[ revert to old Java-based viewer ]
Orbital Elements at Epoch 2458600.5 (2019-Apr-27.0) TDB
Reference: JPL 11 (heliocentric ecliptic J2000)
Element | Value | Uncertainty (1-sigma) | Units |
e | .5991714375887817 | 6.2587e-05 | |
a | 2.823647535797922 | 0.00038918 | au |
q | 1.13179858252986 | 2.074e-05 | au |
i | 8.51576069398012 | 0.00054216 | deg |
node | 186.3765246806239 | 0.00075721 | deg |
peri | 215.7100771904514 | 0.00079653 | deg |
M | 336.9855209365628 | 0.073349 | deg |
tp | 2458711.293122413577 (2019-Aug-15.79312241) | 0.37601 | TDB |
period | 1733.062215266612 4.74 | 0.3583 0.000981 | d yr |
n | .207724798814922 | 4.2946e-05 | deg/d |
Q | 4.515496489065985 | 0.00062237 | au |
|
| | Orbit Determination Parameters
Additional Information
|
[ show covariance matrix ]
Physical Parameter Table
Parameter |
Symbol |
Value |
Units |
Sigma |
Reference |
Notes |
absolute magnitude |
H |
23.2 |
|
n/a |
MPO315319 |
|
|
[ show close-approach data ]
|